User: anonymous   Login
Location: Boiro
(42.6475°N, 8.8834°W)
Time: 23:16:36
(UTC+02:00)
Language:

XW-2C - Orbit

View from above orbital plane
View from above orbital plane
View from above satellite
View from above satellite

Ground track
Ground track

The orbit data is extracted from the following two-line orbital elements,

1 40906U 15049H   24115.48051151  .00040295  00000-0  10402-2 0  9995
2 40906  97.4823 131.0208 0011100 129.3091 230.9140 15.38977634476208
Epoch (UTC): 24 April 2024 11:31:56
Eccentricity: 0.0011100
inclination: 97.4823°
perigee height: 441 km
apogee height: 457 km
right ascension of ascending node: 131.0208°
argument of perigee: 129.3091°
revolutions per day: 15.38977634
mean anomaly at epoch: 230.9140°
orbit number at epoch: 47620

The dashed part of the orbit path shows where the satellite is in the earth's shadow,  

DLR